This demonstration page uses our WeatherBlox Daily Observations layout. Learn more.

Left ArrowRight Arrow

Hourly Observations for December 16, 2020

Temp ( °F °C ) Dew Point ( °F °C ) Humidity (%) Winds ( mph kmh ) Pressure ( in mb ) Visibility ( mi km ) Precip ( " mm )
12:33 am 00:33 Cloudy 21 -6.1 17 -8.3 85 85 S 3 6 30.19 1022 8 12.87472 0 0
12:54 am 00:54 Cloudy 21 -6.1 17 -8.3 85 85 Calm 30.15 1021 7 11.26538 0 0
1:46 am 01:46 Mostly Cloudy 20 -6.7 15 -9.4 81 81 S 6 9 30.16 1021 7 11.26538 0 0
1:54 am 01:54 Cloudy 18 -7.8 14 -10 84 84 S 7 11 30.12 1020 7 11.26538 0 0
2:54 am 02:54 Cloudy 21 -6.1 17 -8.3 85 85 S 3 6 30.12 1020 7 11.26538 0 0
3:03 am 03:03 Cloudy with Mist and Fog 21 -6.1 17 -8.3 85 85 SSW 5 7 30.16 1021 6 9.65604 0 0
3:54 am 03:54 Cloudy with Mist and Fog 20 -6.7 17 -8.3 89 89 S 6 9 30.11 1020 4 6.43736 0 0
4:54 am 04:54 Cloudy with Mist and Fog 21 -6.1 17 -8.3 85 85 SW 6 9 30.1 1019 5 8.0467 0 0
5:54 am 05:54 Cloudy with Mist and Fog 21 -6.1 18 -7.8 88 88 SSW 3 6 30.1 1019 5 8.0467 0 0
6:54 am 06:54 Cloudy with Mist and Fog 22 -5.6 18 -7.8 85 85 SSE 3 6 30.1 1019 4 6.43736 0 0
7:54 am 07:54 Cloudy with Mist and Fog 22 -5.6 18 -7.8 85 85 S 3 6 30.1 1019 3 4.82802 0 0
8:44 am 08:44 Cloudy with Mist and Fog 23 -5 19 -7.2 85 85 SSW 5 7 30.14 1021 3 4.82802 0 0
8:54 am 08:54 Cloudy with Mist and Fog 23 -5 19 -7.2 85 85 SSW 5 7 30.11 1020 3 4.82802 0 0
9:07 am 09:07 Cloudy with Mist and Fog 23 -5 19 -7.2 85 85 SSW 6 9 30.14 1021 3 4.82802 0 0
9:19 am 09:19 Cloudy with Mist and Fog 23 -5 20 -6.7 88 88 S 5 7 30.14 1021 4 6.43736 0 0
9:54 am 09:54 Cloudy with Haze 24 -4.4 19 -7.2 81 81 SSW 6 9 30.11 1020 4 6.43736 0 0
10:54 am 10:54 Hazy 25 -3.9 20 -6.7 81 81 SSW 6 9 30.1 1019 5 8.0467 0 0
11:54 am 11:54 Hazy 27 -2.8 21 -6.1 78 78 SSW 7 11 30.08 1019 5 8.0467 0 0
12:54 pm 12:54 Sunny 28 -2.2 21 -6.1 75 75 SSW 8 13 30.06 1018 7 11.26538 0 0
1:54 pm 13:54 Sunny 30 -1.1 22 -5.6 72 72 S 7 11 30.05 1018 9 14.48406 0 0
2:54 pm 14:54 Sunny 30 -1.1 22 -5.6 72 72 SSW 7 11 30.04 1017 8 12.87472 0 0
3:54 pm 15:54 Mostly Sunny 28 -2.2 21 -6.1 75 75 SSE 8 13 30.05 1018 8 12.87472 0 0
4:29 pm 16:29 Mostly Cloudy 28 -2.2 21 -6.1 75 75 S 6 9 30.08 1019 8 12.87472 0 0
4:54 pm 16:54 Mostly Cloudy 26 -3.3 20 -6.7 78 78 S 7 11 30.06 1018 7 11.26538 0 0
5:05 pm 17:05 Partly Cloudy 25 -3.9 19 -7.2 78 78 S 8 13 30.09 1019 7 11.26538 0 0
5:54 pm 17:54 Clear 24 -4.4 19 -7.2 81 81 S 7 11 30.07 1018 8 12.87472 0 0
6:54 pm 18:54 Clear with Mist and Fog 21 -6.1 18 -7.8 88 88 S 6 9 30.07 1018 6 9.65604 0 0
7:54 pm 19:54 Hazy 24 -4.4 19 -7.2 81 81 S 5 7 30.07 1018 6 9.65604 0 0
8:54 pm 20:54 Clear with Mist and Fog 22 -5.6 18 -7.8 85 85 Calm 30.06 1018 6 9.65604 0 0
9:54 pm 21:54 Clear with Mist and Fog 19 -7.2 16 -8.9 88 88 S 3 6 30.07 1018 4 6.43736 0 0
10:54 pm 22:54 Clear with Mist and Fog 19 -7.2 15 -9.4 84 84 Calm 30.07 1018 4 6.43736 0 0
11:54 pm 23:54 Clear 17 -8.3 13 -10.6 84 84 Calm 30.07 1018 7 11.26538 0 0

Powered by AerisWeather